{"data":{"norad_id":53072,"intl_designator":"2022-077AF","name":"STARLINK-4344","alt_names":[],"object_type":"PAYLOAD","status":"ACTIVE","operator":null,"country":"US","launch_date":"2022-07-11","launch_site_code":"AFWTR","launch_vehicle":null,"mission":null,"orbit_class":"UNKNOWN","rcs_meters":null,"size_class":null,"mass_kg":null,"dimensions":null,"purposes":["comms"],"wikipedia_slug":null,"has_3d_model":false,"image_url":null,"decayed_at":null,"tle_current":{"epoch":"2026-09-19T17:48:56.030688Z","epoch_age_seconds":137780,"freshness":"FRESH","line1":"1 53072U 22077AF  26262.74231517 -.00000256  00000+0 -56071-5 0  9991","line2":"2 53072  97.2850  78.4372 0001647  96.4637 263.6793 15.33435714230236","mean_motion":15.33435714,"eccentricity":0.0001647,"inclination_deg":97.285,"raan_deg":78.4372,"arg_perigee_deg":96.4637,"mean_anomaly_deg":263.6793,"bstar":-5.6071e-6,"rev_number":23023,"period_min":93.906773323006,"perigee_km":464.44364454511,"apogee_km":466.69796189549,"semimajor_km":6843.7078032203,"source":"CELESTRAK","updated_at":"2026-09-20T09:00:40.155977Z"}}}